KRH645R EGVN-KADW

Flight info

Callsign KRH645R
Flight time N/A
Altitude 24000
Route CONKO Q63 ZIPWE/N0453F360 DCT CML DCT SHA/N0445F380 DCT GISTI DCT MALOT/M079F380 DCT 54N020W 55N030W 55N040W 53N050W DCT RIKAL/N0447F380 DCT MIILS DCT VENTE DCT ZIZZI DCT LAFLN SPISY2
Aircraft A21N/M-SDE2E3FGHIRWXY/LB1

Departure

Time N/A
Airport RAF Brize Norton (EGVN)

Arrival

Time 2026-04-27 19:13
Airport Joint Base Andrews (KADW)
Time Latitude Longitude Altitude Speed Heading
2026-04-27 18:58 38.77297 -75.78657 16912 ft 402 kts 269°
2026-04-27 18:58 38.77065 -75.82193 16160 ft 395 kts 269°
2026-04-27 18:58 38.76839 -75.85682 15484 ft 393 kts 269°
2026-04-27 18:58 38.76609 -75.89179 14873 ft 392 kts 269°
2026-04-27 18:59 38.76378 -75.92617 14386 ft 390 kts 268°
2026-04-27 18:59 38.76145 -75.96066 13934 ft 388 kts 268°
2026-04-27 18:59 38.75913 -75.99508 13432 ft 386 kts 268°
2026-04-27 18:59 38.75680 -76.02927 12814 ft 383 kts 268°
2026-04-27 19:00 38.75415 -76.06309 12144 ft 379 kts 264°
2026-04-27 19:00 38.74845 -76.09568 11736 ft 367 kts 259°
2026-04-27 19:00 38.74215 -76.12670 11468 ft 352 kts 259°
2026-04-27 19:00 38.73619 -76.15607 11216 ft 338 kts 259°
2026-04-27 19:01 38.73043 -76.18460 10967 ft 325 kts 259°
2026-04-27 19:01 38.72485 -76.21258 10529 ft 321 kts 259°
2026-04-27 19:01 38.71934 -76.24001 10079 ft 314 kts 259°
2026-04-27 19:01 38.71394 -76.26676 9597 ft 306 kts 259°
2026-04-27 19:02 38.70862 -76.29288 9128 ft 301 kts 258°
2026-04-27 19:02 38.70342 -76.31856 8666 ft 295 kts 258°
2026-04-27 19:02 38.69832 -76.34387 8291 ft 291 kts 258°
2026-04-27 19:02 38.69337 -76.36828 8087 ft 288 kts 257°
2026-04-27 19:03 38.68826 -76.39339 7926 ft 287 kts 257°
2026-04-27 19:03 38.68320 -76.41830 7748 ft 287 kts 257°
2026-04-27 19:03 38.67823 -76.44257 7500 ft 285 kts 257°
2026-04-27 19:03 38.67482 -76.45913 7298 ft 285 kts 257°
2026-04-27 19:04 38.66828 -76.49118 6875 ft 286 kts 256°
2026-04-27 19:04 38.66322 -76.51590 6524 ft 287 kts 256°
2026-04-27 19:04 38.65903 -76.54074 6111 ft 284 kts 268°
2026-04-27 19:04 38.66099 -76.56565 5694 ft 280 kts 282°
2026-04-27 19:05 38.66183 -76.59008 5311 ft 279 kts 262°
2026-04-27 19:05 38.65671 -76.61394 4968 ft 277 kts 252°
2026-04-27 19:05 38.65074 -76.63747 4561 ft 275 kts 252°
2026-04-27 19:05 38.64475 -76.66070 4173 ft 273 kts 252°
2026-04-27 19:06 38.63877 -76.68377 3796 ft 273 kts 252°
2026-04-27 19:06 38.63297 -76.70624 4011 ft 271 kts 252°
2026-04-27 19:06 38.62704 -76.72927 4089 ft 270 kts 252°
2026-04-27 19:06 38.62121 -76.75186 3759 ft 268 kts 252°
2026-04-27 19:07 38.61526 -76.77472 3356 ft 269 kts 252°
2026-04-27 19:07 38.60960 -76.79640 3379 ft 251 kts 252°
2026-04-27 19:07 38.60443 -76.81690 3431 ft 234 kts 256°
2026-04-27 19:07 38.60216 -76.83703 3444 ft 224 kts 270°
2026-04-27 19:08 38.60613 -76.85600 3455 ft 223 kts 304°
2026-04-27 19:08 38.61759 -76.86866 3479 ft 221 kts 339°
2026-04-27 19:08 38.63247 -76.87246 3476 ft 214 kts 359°
2026-04-27 19:08 38.64727 -76.87215 3294 ft 211 kts
2026-04-27 19:09 38.66177 -76.87113 3070 ft 206 kts
2026-04-27 19:09 38.67564 -76.87057 2777 ft 196 kts
2026-04-27 19:09 38.68898 -76.87036 2527 ft 188 kts
2026-04-27 19:09 38.70172 -76.87034 2225 ft 176 kts
2026-04-27 19:10 38.71346 -76.87035 1938 ft 164 kts
2026-04-27 19:10 38.72431 -76.87040 1719 ft 144 kts
2026-04-27 19:10 38.73422 -76.87043 1537 ft 141 kts
2026-04-27 19:10 38.74059 -76.87045 1436 ft 136 kts
2026-04-27 19:11 38.75305 -76.87049 1176 ft 134 kts
2026-04-27 19:11 38.76227 -76.87051 1004 ft 134 kts
2026-04-27 19:11 38.77166 -76.87054 807 ft 136 kts
2026-04-27 19:11 38.78054 -76.87057 658 ft 137 kts
2026-04-27 19:12 38.78999 -76.87060 486 ft 140 kts
2026-04-27 19:12 38.79972 -76.87061 311 ft 138 kts
2026-04-27 19:12 38.80881 -76.87064 293 ft 120 kts
2026-04-27 19:12 38.81512 -76.87057 284 ft 61 kts 356°
2026-04-27 19:13 38.81737 -76.87089 288 ft 14 kts 349°
2026-04-27 19:13 38.81816 -76.87144 297 ft 18 kts 334°
2026-04-27 19:13 38.81944 -76.87227 297 ft 22 kts 331°
2026-04-27 19:13 38.82009 -76.87381 293 ft 23 kts 270°
2026-04-27 19:14 38.81934 -76.87441 294 ft 15 kts 209°
2026-04-27 19:14 38.81893 -76.87447 293 ft 6 kts 182°
2026-04-27 19:14 38.81841 -76.87449 292 ft 9 kts 181°
2026-04-27 19:14 38.81769 -76.87451 293 ft 12 kts 180°
2026-04-27 19:15 38.81668 -76.87451 294 ft 16 kts 179°
2026-04-27 19:15 38.81565 -76.87449 291 ft 12 kts 179°
2026-04-27 19:15 38.81477 -76.87448 288 ft 14 kts 179°
2026-04-27 19:15 38.81371 -76.87447 287 ft 17 kts 179°
2026-04-27 19:16 38.81242 -76.87448 288 ft 20 kts 181°
2026-04-27 19:16 38.81149 -76.87446 286 ft 12 kts 178°
2026-04-27 19:16 38.81042 -76.87445 284 ft 13 kts 180°
2026-04-27 19:16 38.80939 -76.87446 284 ft 16 kts 180°
2026-04-27 19:17 38.80814 -76.87447 283 ft 16 kts 180°
2026-04-27 19:17 38.80768 -76.87448 282 ft 7 kts 180°
2026-04-27 19:17 38.80709 -76.87448 281 ft 10 kts 180°
2026-04-27 19:17 38.80632 -76.87448 285 ft 8 kts 183°
2026-04-27 19:18 38.80618 -76.87470 282 ft 5 kts 249°
2026-04-27 19:18 38.80616 -76.87526 280 ft 8 kts 270°
2026-04-27 19:18 38.80616 -76.87616 278 ft 12 kts 270°
2026-04-27 19:18 38.80616 -76.87657 281 ft 4 kts 270°
2026-04-27 19:19 38.80625 -76.87711 282 ft 6 kts 313°
2026-04-27 19:19 38.80644 -76.87718 279 ft 3 kts 342°
2026-04-27 19:19 38.80658 -76.87721 279 ft 1 kts
2026-04-27 19:19 38.80677 -76.87721 279 ft 5 kts
2026-04-27 19:20 38.80685 -76.87721 279 ft 0 kts